N604PS KATL-KBNA

Flight info

Callsign N604PS
Flight time 0h 42m
Altitude 32000
Route PENCL2 PENCL JAGIR SWFFT3
Aircraft CL60/M-SBDE1E2E3FGHIJ1J4J5J7M3RWXYZ/LB1V1D1

Departure

Time 2026-05-05 00:48
Airport Hartsfield Jackson Atlanta International Airport (KATL)

Arrival

Time 2026-05-05 01:30
Airport Nashville International Airport (KBNA)
Time Latitude Longitude Altitude Speed Heading
2026-05-05 00:16 33.65208 -84.42435 1022 ft 0 kts
2026-05-05 00:40 33.65208 -84.42478 1022 ft 2 kts
2026-05-05 00:40 33.65196 -84.42521 1022 ft 7 kts
2026-05-05 00:41 33.65172 -84.42571 1022 ft 7 kts
2026-05-05 00:41 33.65138 -84.42590 1022 ft 4 kts
2026-05-05 00:41 33.65100 -84.42588 1022 ft 4 kts 167°
2026-05-05 00:41 33.65070 -84.42557 1022 ft 6 kts 116°
2026-05-05 00:42 33.65064 -84.42491 1022 ft 9 kts 90°
2026-05-05 00:42 33.65064 -84.42393 1022 ft 13 kts 90°
2026-05-05 00:42 33.65064 -84.42296 1022 ft 13 kts 90°
2026-05-05 00:42 33.65064 -84.42192 1022 ft 13 kts 90°
2026-05-05 00:43 33.65064 -84.42082 1022 ft 13 kts 90°
2026-05-05 00:43 33.65065 -84.41996 1020 ft 11 kts 90°
2026-05-05 00:43 33.65064 -84.41900 1020 ft 11 kts 90°
2026-05-05 00:43 33.65064 -84.41795 1019 ft 11 kts 90°
2026-05-05 00:44 33.65064 -84.41696 1018 ft 9 kts 91°
2026-05-05 00:44 33.65065 -84.41612 1018 ft 9 kts 84°
2026-05-05 00:44 33.65083 -84.41534 1021 ft 9 kts 66°
2026-05-05 00:44 33.65108 -84.41469 1022 ft 9 kts 72°
2026-05-05 00:45 33.65120 -84.41389 1022 ft 9 kts 89°
2026-05-05 00:45 33.65120 -84.41297 1022 ft 12 kts 90°
2026-05-05 00:45 33.65120 -84.41188 1022 ft 10 kts 90°
2026-05-05 00:45 33.65120 -84.41106 1022 ft 11 kts 90°
2026-05-05 00:46 33.65118 -84.41013 1022 ft 8 kts 105°
2026-05-05 00:46 33.65073 -84.40963 1022 ft 7 kts 170°
2026-05-05 00:46 33.65056 -84.40962 1022 ft 4 kts 179°
2026-05-05 00:46 33.65005 -84.40962 1022 ft 9 kts
2026-05-05 00:47 33.64955 -84.41011 1020 ft 6 kts
2026-05-05 00:47 33.64954 -84.41051 1019 ft 0 kts
2026-05-05 00:47 33.64954 -84.41057 1019 ft 12 kts
2026-05-05 00:47 33.64955 -84.41684 1010 ft 132 kts
2026-05-05 00:48 33.64971 -84.43084 1392 ft 185 kts
2026-05-05 00:48 33.65014 -84.44606 2188 ft 189 kts
2026-05-05 00:48 33.65083 -84.46284 2658 ft 208 kts
2026-05-05 00:48 33.65407 -84.47954 3168 ft 208 kts
2026-05-05 00:49 33.65517 -84.48368 3292 ft 208 kts
2026-05-05 00:49 33.67043 -84.52573 4530 ft 211 kts
2026-05-05 00:49 33.67706 -84.54243 5084 ft 212 kts
2026-05-05 00:50 33.68362 -84.55899 5632 ft 213 kts
2026-05-05 00:50 33.69286 -84.57364 6172 ft 219 kts
2026-05-05 00:50 33.70685 -84.58149 6709 ft 226 kts
2026-05-05 00:50 33.72328 -84.58210 7271 ft 228 kts
2026-05-05 00:51 33.73952 -84.58183 7811 ft 229 kts
2026-05-05 00:51 33.75557 -84.58162 8342 ft 231 kts
2026-05-05 00:51 33.77176 -84.58141 8869 ft 232 kts
2026-05-05 00:51 33.78851 -84.58120 9415 ft 234 kts
2026-05-05 00:52 33.80502 -84.58099 9953 ft 236 kts
2026-05-05 00:52 33.82181 -84.58097 10493 ft 250 kts
2026-05-05 00:52 33.84069 -84.58124 11019 ft 290 kts
2026-05-05 00:52 33.86178 -84.58523 11522 ft 320 kts
2026-05-05 00:53 33.88401 -84.59252 12041 ft 333 kts
2026-05-05 00:53 33.90725 -84.60010 12584 ft 336 kts
2026-05-05 00:53 33.93022 -84.60758 13103 ft 336 kts
2026-05-05 00:53 33.95342 -84.61513 13458 ft 341 kts
2026-05-05 00:54 33.97665 -84.62267 13532 ft 340 kts
2026-05-05 00:54 34.00030 -84.63035 13534 ft 339 kts
2026-05-05 00:54 34.02348 -84.63786 13673 ft 335 kts
2026-05-05 00:54 34.04713 -84.64554 14131 ft 335 kts
2026-05-05 00:55 34.07088 -84.65326 14608 ft 340 kts
2026-05-05 00:55 34.09426 -84.66085 15074 ft 344 kts
2026-05-05 00:55 34.11800 -84.66856 15538 ft 346 kts
2026-05-05 00:55 34.14181 -84.67630 15997 ft 348 kts
2026-05-05 00:56 34.16568 -84.68405 16467 ft 350 kts
2026-05-05 00:56 34.18990 -84.69191 16930 ft 352 kts
2026-05-05 00:56 34.21436 -84.69986 17398 ft 354 kts
2026-05-05 00:56 34.23901 -84.70788 17866 ft 355 kts
2026-05-05 00:57 34.26273 -84.71865 18348 ft 351 kts
2026-05-05 00:57 34.28473 -84.73491 18804 ft 353 kts
2026-05-05 00:57 34.30673 -84.75150 19270 ft 354 kts
2026-05-05 00:57 34.32867 -84.76803 19738 ft 355 kts
2026-05-05 00:58 34.35081 -84.78471 20220 ft 357 kts
2026-05-05 00:58 34.37305 -84.80147 20713 ft 359 kts
2026-05-05 00:58 34.39545 -84.81838 21182 ft 362 kts
2026-05-05 00:58 34.41796 -84.83537 21650 ft 364 kts
2026-05-05 00:59 34.44054 -84.85241 22127 ft 366 kts
2026-05-05 00:59 34.46308 -84.86943 22608 ft 367 kts
2026-05-05 00:59 34.48585 -84.88629 23094 ft 369 kts
2026-05-05 00:59 34.50895 -84.90300 23577 ft 371 kts
2026-05-05 01:00 34.53233 -84.92006 24070 ft 373 kts
2026-05-05 01:00 34.55519 -84.93684 24547 ft 376 kts
2026-05-05 01:00 34.57895 -84.95439 25036 ft 378 kts
2026-05-05 01:00 34.60275 -84.97204 25527 ft 381 kts
2026-05-05 01:01 34.62652 -84.98975 26021 ft 384 kts
2026-05-05 01:01 34.65055 -85.00772 26508 ft 386 kts
2026-05-05 01:01 34.67468 -85.02604 27000 ft 389 kts
2026-05-05 01:01 34.69873 -85.04442 27482 ft 391 kts
2026-05-05 01:02 34.72294 -85.06297 27970 ft 394 kts
2026-05-05 01:02 34.74735 -85.08170 28459 ft 397 kts
2026-05-05 01:02 34.77198 -85.10064 28951 ft 400 kts
2026-05-05 01:02 34.79664 -85.11964 29439 ft 403 kts
2026-05-05 01:03 34.82156 -85.13885 29927 ft 405 kts
2026-05-05 01:03 34.84657 -85.15819 30405 ft 407 kts
2026-05-05 01:03 34.87156 -85.17753 30888 ft 408 kts
2026-05-05 01:03 34.89651 -85.19686 31372 ft 408 kts
2026-05-05 01:04 34.92162 -85.21635 31843 ft 409 kts
2026-05-05 01:04 34.97253 -85.25591 32022 ft 422 kts
2026-05-05 01:04 34.99810 -85.27577 31839 ft 428 kts
2026-05-05 01:05 35.02406 -85.29590 31109 ft 426 kts
2026-05-05 01:05 35.04910 -85.31541 30547 ft 416 kts
2026-05-05 01:05 35.07357 -85.33445 29990 ft 407 kts
2026-05-05 01:05 35.09832 -85.35374 29415 ft 398 kts
2026-05-05 01:06 35.12176 -85.37205 28892 ft 390 kts
2026-05-05 01:06 35.14491 -85.39017 28354 ft 382 kts
2026-05-05 01:06 35.16636 -85.40943 27884 ft 370 kts
2026-05-05 01:06 35.18438 -85.43210 27460 ft 367 kts
2026-05-05 01:07 35.20243 -85.45514 27071 ft 369 kts
2026-05-05 01:07 35.22113 -85.47895 26634 ft 368 kts
2026-05-05 01:07 35.23980 -85.50273 26205 ft 367 kts
2026-05-05 01:07 35.25833 -85.52637 25785 ft 364 kts
2026-05-05 01:08 35.27674 -85.54984 25368 ft 362 kts
2026-05-05 01:08 35.29497 -85.57311 24951 ft 360 kts
2026-05-05 01:08 35.31306 -85.59623 24533 ft 357 kts
2026-05-05 01:08 35.33122 -85.61944 24130 ft 356 kts
2026-05-05 01:09 35.34933 -85.64260 23713 ft 354 kts
2026-05-05 01:09 35.36684 -85.66500 23308 ft 352 kts
2026-05-05 01:09 35.38445 -85.68761 22910 ft 351 kts
2026-05-05 01:09 35.40096 -85.70944 22495 ft 349 kts
2026-05-05 01:10 35.41809 -85.73197 22104 ft 347 kts
2026-05-05 01:10 35.43535 -85.75463 21704 ft 345 kts
2026-05-05 01:10 35.45245 -85.77701 21307 ft 343 kts
2026-05-05 01:10 35.46955 -85.79935 20908 ft 340 kts
2026-05-05 01:11 35.48644 -85.82137 20517 ft 339 kts
2026-05-05 01:11 35.50341 -85.84350 20108 ft 337 kts
2026-05-05 01:11 35.52019 -85.86534 19732 ft 335 kts
2026-05-05 01:11 35.53690 -85.88708 19341 ft 334 kts
2026-05-05 01:12 35.55347 -85.90863 18966 ft 331 kts
2026-05-05 01:12 35.56974 -85.93037 18607 ft 330 kts
2026-05-05 01:12 35.58605 -85.95231 18301 ft 328 kts
2026-05-05 01:12 35.60228 -85.97413 18011 ft 323 kts
2026-05-05 01:13 35.61786 -85.99508 17697 ft 312 kts
2026-05-05 01:13 35.63297 -86.01541 17407 ft 302 kts
2026-05-05 01:13 35.64780 -86.03538 17104 ft 295 kts
2026-05-05 01:13 35.66250 -86.05519 16820 ft 298 kts
2026-05-05 01:14 35.67718 -86.07498 16523 ft 298 kts
2026-05-05 01:14 35.69186 -86.09474 16240 ft 297 kts
2026-05-05 01:14 35.70649 -86.11450 15942 ft 296 kts
2026-05-05 01:14 35.71980 -86.13546 15656 ft 294 kts
2026-05-05 01:15 35.73256 -86.15671 15362 ft 293 kts
2026-05-05 01:15 35.74522 -86.17777 15066 ft 292 kts
2026-05-05 01:15 35.75781 -86.19874 14801 ft 292 kts
2026-05-05 01:15 35.77044 -86.21976 14514 ft 291 kts
2026-05-05 01:16 35.78294 -86.24060 14278 ft 289 kts
2026-05-05 01:16 35.79532 -86.26124 13949 ft 289 kts
2026-05-05 01:16 35.80771 -86.28192 13687 ft 290 kts
2026-05-05 01:16 35.81985 -86.30221 13420 ft 287 kts
2026-05-05 01:17 35.83181 -86.32220 13150 ft 287 kts
2026-05-05 01:17 35.84372 -86.34211 12875 ft 286 kts
2026-05-05 01:17 35.85559 -86.36196 12608 ft 284 kts
2026-05-05 01:17 35.86730 -86.38156 12347 ft 283 kts
2026-05-05 01:18 35.87898 -86.40113 12086 ft 281 kts
2026-05-05 01:18 35.89063 -86.42063 11820 ft 278 kts
2026-05-05 01:18 35.90239 -86.44033 11551 ft 271 kts
2026-05-05 01:18 35.91401 -86.45984 11289 ft 266 kts
2026-05-05 01:19 35.92544 -86.47903 11027 ft 265 kts
2026-05-05 01:19 35.93664 -86.49788 10779 ft 265 kts
2026-05-05 01:19 35.94756 -86.51625 10532 ft 263 kts
2026-05-05 01:19 35.95835 -86.53441 10289 ft 259 kts
2026-05-05 01:20 35.96898 -86.55229 10051 ft 257 kts
2026-05-05 01:20 35.98004 -86.57084 9800 ft 257 kts
2026-05-05 01:20 35.99362 -86.58612 9520 ft 262 kts
2026-05-05 01:20 36.01133 -86.59398 9228 ft 268 kts
2026-05-05 01:21 36.03038 -86.59247 8924 ft 275 kts 12°
2026-05-05 01:21 36.04883 -86.58516 8642 ft 274 kts 16°
2026-05-05 01:21 36.06710 -86.57766 8404 ft 267 kts 15°
2026-05-05 01:21 36.08504 -86.57036 8153 ft 262 kts 15°
2026-05-05 01:22 36.10285 -86.56312 7943 ft 257 kts 15°
2026-05-05 01:22 36.12013 -86.55611 7927 ft 260 kts 15°
2026-05-05 01:22 36.13776 -86.54896 7933 ft 262 kts 15°
2026-05-05 01:22 36.15396 -86.54240 7932 ft 262 kts 15°
2026-05-05 01:23 36.17089 -86.53553 7935 ft 263 kts 15°
2026-05-05 01:23 36.18743 -86.52883 7931 ft 263 kts 15°
2026-05-05 01:23 36.20565 -86.52145 7927 ft 263 kts 15°
2026-05-05 01:23 36.22397 -86.51403 7932 ft 262 kts 15°
2026-05-05 01:24 36.24212 -86.50678 7936 ft 262 kts 12°
2026-05-05 01:24 36.26015 -86.50622 7926 ft 251 kts
2026-05-05 01:24 36.27437 -86.51780 7641 ft 236 kts
2026-05-05 01:24 36.27912 -86.53598 7291 ft 215 kts
2026-05-05 01:25 36.27280 -86.55215 6954 ft 203 kts
2026-05-05 01:25 36.25949 -86.55730 6703 ft 202 kts 178°
2026-05-05 01:25 36.24593 -86.55305 6615 ft 187 kts 177°
2026-05-05 01:25 36.23396 -86.55469 6469 ft 165 kts
2026-05-05 01:26 36.22569 -86.56385 6267 ft 156 kts
2026-05-05 01:26 36.22172 -86.57630 6038 ft 154 kts
2026-05-05 01:26 36.21924 -86.58936 5699 ft 158 kts
2026-05-05 01:26 36.21681 -86.60205 5486 ft 140 kts
2026-05-05 01:27 36.21461 -86.61330 5305 ft 132 kts
2026-05-05 01:27 36.21241 -86.62431 5101 ft 130 kts
2026-05-05 01:27 36.21029 -86.63504 4884 ft 124 kts
2026-05-05 01:27 36.20815 -86.64555 4439 ft 131 kts
2026-05-05 01:28 36.20234 -86.65386 3810 ft 139 kts
2026-05-05 01:28 36.19335 -86.65726 3455 ft 123 kts
2026-05-05 01:28 36.18485 -86.65989 2836 ft 130 kts
2026-05-05 01:28 36.17674 -86.66313 2185 ft 131 kts
2026-05-05 01:29 36.16828 -86.66709 1463 ft 132 kts
2026-05-05 01:29 36.15993 -86.66981 1078 ft 116 kts
2026-05-05 01:29 36.15241 -86.67289 878 ft 114 kts
2026-05-05 01:29 36.14476 -86.67584 772 ft 115 kts
2026-05-05 01:30 36.13696 -86.67885 628 ft 116 kts
2026-05-05 01:30 36.13004 -86.68165 607 ft 90 kts
2026-05-05 01:30 36.12547 -86.68341 607 ft 43 kts
2026-05-05 01:30 36.12381 -86.68408 607 ft 0 kts
2026-05-05 01:31 36.12379 -86.68409 607 ft 0 kts
2026-05-05 01:31 36.12366 -86.68429 607 ft 5 kts
2026-05-05 01:31 36.12343 -86.68483 607 ft 9 kts
2026-05-05 01:31 36.12342 -86.68544 607 ft 8 kts
2026-05-05 01:32 36.12392 -86.68564 607 ft 8 kts 14°
2026-05-05 01:32 36.12458 -86.68537 607 ft 9 kts 18°
2026-05-05 01:32 36.12525 -86.68517 607 ft 9 kts
2026-05-05 01:32 36.12562 -86.68581 607 ft 11 kts
2026-05-05 01:33 36.12584 -86.68670 607 ft 10 kts
2026-05-05 01:33 36.12605 -86.68751 607 ft 8 kts
2026-05-05 01:33 36.12595 -86.68814 607 ft 7 kts
2026-05-05 01:33 36.12575 -86.68878 607 ft 7 kts
2026-05-05 01:34 36.12582 -86.68959 607 ft 10 kts
2026-05-05 01:34 36.12590 -86.69046 607 ft 10 kts
2026-05-05 01:34 36.12599 -86.69127 607 ft 10 kts
2026-05-05 01:34 36.12609 -86.69197 607 ft 6 kts
2026-05-05 01:35 36.12649 -86.69203 607 ft 4 kts 14°
2026-05-05 01:35 36.12667 -86.69225 607 ft 6 kts
2026-05-05 01:35 36.12638 -86.69217 607 ft 9 kts 110°
2026-05-05 01:35 36.12643 -86.69161 607 ft 4 kts 26°
2026-05-05 01:36 36.12665 -86.69162 607 ft 5 kts
2026-05-05 01:36 36.12660 -86.69179 607 ft 1 kts
2026-05-05 01:36 36.12658 -86.69180 607 ft 0 kts
2026-05-05 01:45 36.16156 -86.53930 7963 ft 262 kts 18°
2026-05-05 01:45 36.15460 -86.67202 928 ft 113 kts